Regional Weather Roundup
Issued by NWS Wakefield, VA

Home | Current Version | Previous Version | Graphics & Text | Print | Product List | Glossary On
Versions: 1 2 3 4 5 6 7 8 9 10 11 12 13 14 15 16 17 18 19 20 21 22 23 24 25 26 27 28 29 30 31 32 33 34 35 36 37 38 39 40 41 42 43 44 45 46 47 48 49 50
000
ASUS41 KAKQ 171110
RWRAKQ

REGIONAL WEATHER ROUNDUP
NATIONAL WEATHER SERVICE WAKEFIELD VA
700 AM EDT WED SEP 17 2014

Note: "fair" indicates few or no clouds below 12,000 feet with no
significant weather and/or obstructions to visibility. * = Denotes
station may not report precipitation (e.g., rain,snow,etc.),
thunder or fog.

VAZ042-051-052>054-056-171200-
NORTHERN VIRGINIA

CITY           SKY/WX    TMP DP  RH WIND       PRES   REMARKS
WASH NATIONAL  PTCLDY    59  51  75 N5        30.06R
DULLES         PTCLDY    50  48  93 NW5       30.06R
FORT BELVOIR   CLEAR     53  51  92 CALM      30.06R
QUANTICO       CLEAR     56  51  84 NW7       30.06R
FREDERICKSBRG* CLOUDY    57  55  93 N3        30.04S
STAFFORD*      PTCLDY    50  50 100 CALM      30.09R
WARRENTON      CLEAR     46  46 100 CALM      30.05S FOG
CULPEPER*      MOCLDY    52  50  93 CALM      30.07R
MANASSAS*      CLEAR     48  46  93 CALM      30.06R
LEESBURG*      CLEAR     50  50 100 CALM      30.07R
WINCHESTER     CLEAR     46  46 100 CALM      30.07S
FRONT ROYAL*   CLOUDY    46  46 100 W3        30.06S VSB 1/2
LURAY*         FOG       50  50 100 CALM      30.08R VSB 1/4
$$

VAZ048-049-060>072-079>083-171200-
CENTRAL AND SOUTH CENTRAL VIRGINIA...AND NORTH CENTRAL NORTH CAROLINA

CITY           SKY/WX    TMP DP  RH WIND       PRES   REMARKS
RICHMOND       MOCLDY    59  55  87 N6        30.03R
CHESTERFIELD*  CLOUDY    61   5  11 N3        30.04R
PETERSBURG*    CLOUDY    62  55  80 N5        30.03R
HANOVER        CLEAR     56  54  93 VRB3      30.05R
TAPPAHANNOCK*  PTCLDY    56  54  91 CALM      30.03S
CHARLOTTSVILLE CLOUDY    56  51  84 SE3       30.05R
ORANGE*        CLOUDY    55  50  82 CALM      30.06S
LOUISA*        PTCLDY    52  50  93 NW3       30.04R
FARMVILLE*     CLOUDY    57  52  82 N5        30.02R
CREWE*         PTSUNNY   62  56  82 CALM      30.02R
FORT PICKETT*  PTSUNNY   60  56  89 N5        30.02S
LUNENBURG*     PTSUNNY   61  57  87 N3        30.02R
SOUTH HILL*    MOCLDY    64  63  94 N5        30.50R
LAWRENCEVILLE* PTSUNNY   63  60  90 CALM      30.00S
ROANOKE RAPIDS CLOUDY    64  61  88 NE3       29.98S
RALEIGH        CLOUDY    67  62  84 NE6       29.98R
$$

VAZ088>098-171200-
SOUTHEAST VIRGINIA

CITY           SKY/WX    TMP DP  RH WIND       PRES   REMARKS
NORFOLK        CLOUDY    70  60  70 NE9       29.98S
VIRGINIA BEACH CLOUDY    69  59  70 NE8       29.98R
NORFOLK NAVAL  CLOUDY    71  61  70 NE8       30.00S
WEST POINT*    MOCLDY    63  58  84 N3        30.03S
NEWPORT NEWS   CLOUDY    68  62  81 N5        30.00R
LANGLEY AFB    MOCLDY    68  66  93 NE5       29.99R
FORT EUSTIS    MOCLDY    66  66 100 N3        29.98S
WILLIAMSBURG*  MOCLDY    66  63  88 CALM      30.01S
HR EXEC AP*    CLOUDY    66  61  82 E3        30.01S
FRANKLIN*        N/A     66  63  88 CALM      30.00R
WAKEFIELD      CLOUDY    65  61  87 CALM      30.00R
$$

VAZ020-022-025-037-045-171200-
WEST CENTRAL AND SOUTHWEST VIRGINIA

CITY           SKY/WX    TMP DP  RH WIND       PRES   REMARKS
STAUNTON*      MOCLDY    49  47  92 E3        30.09R FOG
HOT SPRINGS VA MOCLDY    48  35  59 E5        30.11R
LYNCHBURG      MOCLDY    58  52  80 N5        30.06R
DANVILLE       CLOUDY    63  55  75 NE8       30.02R
SOUTH BOSTON*  NOT AVBL
MARTINSVILLE   CLOUDY    59  57  94 N5        30.05S
ROANOKE        PTCLDY    59  52  77 NE5       30.07R
BLACKSBURG     MOCLDY    55  55 100 CALM      30.08R
DUBLIN*        PTCLDY    54  54 100 CALM      30.07S FOG
MARION*        FOG       55  53  95 CALM      30.09S VSB 3/4
HILLSVILLE*    MOCLDY    54  53  99 NE5       30.07R FOG
RICHLANDS*     FOG       57  55  94 N3        30.06R VSB<1/4
WISE*          CLOUDY    55  55 100 N3        30.08R FOG
ABINGDON*      PTCLDY    58  57  94 NE3       30.03S
$$

MDZ021>025-VAZ099-100-171200-
SOUTHERN MARYLAND AND THE DELMARVA PENINSULA

CITY           SKY/WX    TMP DP  RH WIND       PRES   REMARKS
PATUXENT RIVER PTCLDY    62  58  86 NE5       30.03R
BAY BRIDGE APT   N/A     59  52  77 CALM      30.05R
LEONARDTOWN    CLEAR     54  52  94 CALM      30.05R
DOVER          CLEAR     52  51  97 NW3       30.02R
GEORGETOWN     PTCLDY    56  53  90 CALM      30.04R
EASTON         PTCLDY    55  55 100 CALM      30.08R
CAMBRIDGE      CLEAR     55  52  88 CALM      30.03R
SALISBURY      PTCLDY    60  54  80 CALM      30.03R
OCEAN CITY     PTCLDY    59  56  89 N5        30.02R FOG
WALLOPS ISLAND MOCLDY    60  57  89 N7        30.02R
ACCOMACK*      MOCLDY    59  55  88 CALM      30.01R
$$

NCZ012>017-030>032-171200-
EASTERN NORTH CAROLINA

CITY           SKY/WX    TMP DP  RH WIND       PRES   REMARKS
ELIZABETH CITY CLOUDY    71  64  78 NE13      29.97R
AHOSKIE*       CLOUDY    66  61  84 N3        29.98S
EDENTON*       NOT AVBL
CURRITUCK*     CLOUDY   N/A N/A N/A NE8       29.98R
KILL DEVIL HLS CLOUDY    73  63  70 E7        29.96R
MANTEO         CLOUDY    73  63  71 NE10      29.96R
CAPE HATTERAS  CLOUDY    71  67  87 NE8       29.93R
TARBORO*       CLOUDY    67  61  81 N3        29.98S
GOLDSBORO      MOCLDY    68  68  98 CALM      29.93S
WASHINGTON     CLOUDY    66  64  93 N3        29.95S
GREENVILLE     MOCLDY    68  64  88 N6        29.98S
NEW BERN       LGT RAIN  72  68  87 E7        29.94S
WILMINGTON     PTCLDY    65  64  97 N6        29.93R
$$

VAZ048-171200-
ELSEWHERE

CITY           SKY/WX    TMP DP  RH WIND       PRES   REMARKS
HARRISBURG PA  CLEAR     53  50  89 N3        30.05S
BALTIMORE      PTCLDY    52  50  93 CALM      30.05R
ANNAPOLIS      CLEAR     61  57  87 N6        30.05R
ANDREWS AFB    CLEAR     54  50  87 N5        30.03S
WILMINGTON DE  MOCLDY    55  51  86 NW5       30.06R
PHILADELPHIA   MOCLDY    58  50  75 NW6       30.05R
WILDWOOD NJ*   CLEAR     54  46  76 CALM      30.04S
ATLANTIC CITY  CLEAR     50  48  93 CALM      30.04R
HENDERSON NC   CLOUDY    65  60  83 NE6       29.99S
GREENSBORO     CLOUDY    62  59  90 NE9       29.99S
ROCKY MOUNT    CLOUDY    67  61  81 NE6       29.97R
FAYETTEVILLE   MOCLDY    66  64  93 N6        29.94R
CHARLOTTE      CLOUDY    66  64  93 N6        29.97S
$$

VAZ100-171200-
MARINE

STATION/POSITION TIME  TEMP    WIND        PRES    WAVE   SWELL
                       AIR SEA DIR/SP/G            HT/PER HT/PER
                 (UTC) (F)     (DEG/KT/KT) (MB)    (FT/S) (FT/S)
44066 TX TWR #4  1100   67 74   20/ 14/ 16 1015.7R   3/15   3/15
CAPE MAY NJ      1100   58 75   40/  4/  7 1016.4R
LEWES DE         1100   66 71   50/ 12/ 14 1016.5R
15NM E FENWICK I 1100   68 72              1015.9R   3/15
OCEAN-CITY-INLET 1100   66 72   10/  6/  8 1016.0R
WACHAPREAGUE VA  1100   64 74  360/  4/  6 1016.0R
THOMAS POINT MD  1100   64 74   60/  7/  7 1018.3R
GOOSES REEF MD   1100   66      90/ 12/ 14 1017.2S
COVE POINT MD    1100   64      80/ 12/ 14 1016.7R
SOLOMONS ISLAND  1100      76                N/A
BISHOPS HEAD MD  1100   63 71   50/  9/ 12 1016.2R
PINEY POINT MD   1100           50/  6/  7   N/A
POTOMAC MD       1100   68      60/ 10/ 12 1015.9R
CAMBRIDGE MD     1100   63 75   70/  7/  9 1016.6R
LEWISETTA VA     1100   67 73   50/  6/  9 1016.1S
RAPPAHANNOCK LGT 1100           40/ 13/ 15 1016.3R
STINGRAY PT      1100   70      70/ 10/ 12   N/A
YORK RVR RNG VA  1100   71      50/ 10/ 11 1015.4R
YORKTOWN VA      1100   69 77   10/  8/  9 1015.4S
JAMESTOWN VA     1100   68      30/  4/  8   N/A
DOMINION TERM VA 1100   69      20/  4/  5 1015.4S
KIPTOPEKE VA     1100      79   40/  2/  3   N/A
CHES BAY BRIDGE  1100   71 76   50/ 11/ 12 1014.8S
CAPE HENRY VA    1100   71      70/ 12/ 14 1014.0F
CHESAPEAKE LGHT  1000   71      60/ 14/ 15 1015.7R
WILLOUBY STN VA  1100   71      60/ 10/ 11 1014.1S
S CRANEY ISL VA  1100           10/  8/ 10 1014.9F
CAPE HENRY BUOY  1100      75                N/A     3/14   2/14
1ST LANDING BUOY 1100   72      80/ 10/ 12 1015.1S
CAPE CHARLES BUO 1100      75                N/A     3/13   3/13
OFFSHORE WE BUOY 1100      74                N/A     3/12   3/12
64NM E OF VA BCH 1100   73 77   50/ 14/ 17 1014.4R   4/14   3/14
DUCK PIER NC     1100   74 76   50/ 13/ 15 1014.0R
44100 DUCK FRF   1100      74                N/A     4/14   2/14
44056 DUCK FRF   1100                        N/A     3/15   3/15
OREGON INLET NC  1100   73 76   50/ 10/ 14 1014.3R
HATTERAS NC      1100   75 80   50/ 10/ 15 1013.9R
DIAMOND SHLS NC  1100   77      40/ 10/ 16 1013.0R   4/15   3/15
CAPE LOOKOUT NC  1000   74      70/  8/  9 1012.5R
$$



USA.gov is the U.S. government's official web portal to all federal, state and local government web resources and services.